DW7126 Lourinha PT current weather conditions

sailwx.info

Wind from 305 at 12 knots gusting 19

Air temperature 13.3° C
Dewpoint 13.0° C

Last reported at 2015-Jan-30 20:50 UTC.
Time now 2015-Jan-30 21:34 UTC

Location: N 39°14' W 009°18'.
View on Google Maps.

See reports from other nearby stations

  
Tides and Currents Weather Stations Pressure Air Temp Water Temp Dewpoint Dewpoint Depression Visibility Wind Speed Wind Dir Waves Ship Positions
date/time (UTC)wind fromknots sea level pressurealtimeterstation pressurevisibilityair tempwater tempwave heightnotes
2015-Jan-30 20:50 305 12 gusting 19 13.3
2015-Jan-30 20:45 269 10 gusting 23 13.3
2015-Jan-30 20:40 345 12 gusting 23 13.3
2015-Jan-30 20:35 309 13 gusting 20 13.3
2015-Jan-30 20:30 291 13 gusting 20 13.3
2015-Jan-30 20:25 286 12 gusting 22 13.3
2015-Jan-30 20:20 279 14 gusting 22 13.3
2015-Jan-30 20:15 269 12 gusting 20 13.3
2015-Jan-30 20:10 277 13 gusting 26 13.3
2015-Jan-30 20:05 225 10 gusting 26 13.3
2015-Jan-30 20:00 263 13 gusting 21 13.3
2015-Jan-30 19:55 302 13 gusting 22 13.3
2015-Jan-30 19:50 268 14 gusting 22 13.3
2015-Jan-30 19:45 256 13 gusting 21 13.3
2015-Jan-30 19:40 278 13 gusting 23 13.3
2015-Jan-30 19:35 265 13 gusting 24 13.3
2015-Jan-30 19:30 275 11 gusting 25 13.3
2015-Jan-30 19:25 281 13 gusting 25 13.3
2015-Jan-30 19:20 273 15 gusting 24 13.3
2015-Jan-30 19:15 282 14 gusting 24 13.3
2015-Jan-30 19:10 267 14 gusting 25 13.3
2015-Jan-30 19:05 275 13 gusting 25 13.3
2015-Jan-30 19:00 265 13 gusting 25 13.3
2015-Jan-30 18:55 314 16 gusting 25 13.3
2015-Jan-30 18:50 275 14 gusting 23 13.3
2015-Jan-30 18:45 232 13 gusting 21 13.3
2015-Jan-30 18:40 279 14 gusting 22 13.3
2015-Jan-30 18:35 329 13 gusting 22 13.3
2015-Jan-30 18:30 264 14 gusting 24 13.3
2015-Jan-30 18:25 261 15 gusting 24 13.3
2015-Jan-30 18:20 288 13 gusting 22 13.3
2015-Jan-30 18:15 274 15 gusting 22 13.3
2015-Jan-30 18:10 279 13 gusting 19 13.3
2015-Jan-30 18:05 244 13 gusting 19 13.3
2015-Jan-30 18:00 267 11 gusting 18 13.3
2015-Jan-30 17:55 322 13 gusting 20 13.3
2015-Jan-30 17:50 271 13 gusting 20 13.3
2015-Jan-30 17:45 287 13 gusting 19 13.3
2015-Jan-30 17:40 297 13 gusting 22 13.3
2015-Jan-30 17:35 277 15 gusting 24 13.3
2015-Jan-30 17:30 271 14 gusting 24 13.3
2015-Jan-30 17:25 250 12 gusting 25 13.3
2015-Jan-30 17:20 269 15 gusting 26 13.3
2015-Jan-30 17:15 272 13 gusting 24 13.3
2015-Jan-30 17:10 254 13 gusting 24 13.3
2015-Jan-30 17:05 277 13 gusting 20 13.3
2015-Jan-30 17:00 264 11 gusting 21 13.3
2015-Jan-30 16:55 259 13 gusting 22 13.3
2015-Jan-30 16:50 271 15 gusting 24 13.3
2015-Jan-30 16:45 277 14 gusting 24 13.3
2015-Jan-30 16:40 262 14 gusting 23 13.3
2015-Jan-30 16:35 299 14 gusting 23 13.3
2015-Jan-30 16:30 291 14 gusting 23 13.3
2015-Jan-30 16:25 271 13 gusting 25 13.3
2015-Jan-30 16:20 267 18 gusting 26 13.3
2015-Jan-30 16:15 263 16 gusting 26 13.3
2015-Jan-30 16:10 284 18 gusting 26 13.9
2015-Jan-30 16:05 259 13 gusting 23 13.9
2015-Jan-30 16:00 277 11 gusting 23 13.9
2015-Jan-30 15:55 259 14 gusting 21 13.3
2015-Jan-30 15:50 275 13 gusting 24 13.3
2015-Jan-30 15:45 271 14 gusting 25 13.9
2015-Jan-30 15:40 276 12 gusting 24 13.9
2015-Jan-30 15:35 294 13 gusting 26 13.9
2015-Jan-30 15:30 279 14 gusting 26 13.9
2015-Jan-30 15:25 267 13 gusting 24 13.9
2015-Jan-30 15:20 292 11 gusting 25 13.3
2015-Jan-30 15:15 286 16 gusting 24 13.3
2015-Jan-30 15:10 298 11 gusting 24 13.3
2015-Jan-30 15:05 294 12 gusting 21 13.3
2015-Jan-30 15:00 295 13 gusting 21 13.3
2015-Jan-30 14:55 273 13 gusting 20 13.3
2015-Jan-30 14:50 284 13 gusting 21 13.9
2015-Jan-30 14:45 286 11 gusting 23 13.9
2015-Jan-30 14:40 250 11 gusting 25 13.3
2015-Jan-30 14:35 279 18 gusting 25 13.3
2015-Jan-30 14:30 273 13 gusting 24 13.9
2015-Jan-30 14:25 269 14 gusting 23 13.3
2015-Jan-30 14:20 278 11 gusting 24 13.3
2015-Jan-30 14:15 269 15 gusting 26 13.3
2015-Jan-30 14:10 267 16 gusting 26 13.3
2015-Jan-30 14:05 291 11 gusting 24 13.3
2015-Jan-30 14:00 265 12 gusting 24 13.3
2015-Jan-30 13:55 270 9 gusting 21 13.3
2015-Jan-30 13:50 273 10 gusting 21 13.3
2015-Jan-30 13:45 279 12 gusting 26 13.3
2015-Jan-30 13:40 261 15 gusting 26 13.3
2015-Jan-30 13:35 296 14 gusting 23 13.3
2015-Jan-30 13:30 254 13 gusting 23 13.3
2015-Jan-30 13:25 313 13 gusting 23 13.3
2015-Jan-30 13:20 262 14 gusting 22 13.3
2015-Jan-30 13:15 290 13 gusting 19 13.9
2015-Jan-30 13:10 265 13 gusting 19 13.3
2015-Jan-30 13:05 274 10 gusting 20 13.3
2015-Jan-30 13:00 324 13 gusting 20 13.3
2015-Jan-30 12:55 277 12 gusting 20 13.9
2015-Jan-30 12:50 297 13 gusting 20 13.3
2015-Jan-30 12:45 270 10 gusting 19 13.3
2015-Jan-30 12:40 274 10 gusting 19 13.3
2015-Jan-30 12:35 298 12 gusting 19 13.3
2015-Jan-30 12:30 294 11 gusting 21 13.3
2015-Jan-30 12:25 319 13 gusting 21 13.3
2015-Jan-30 12:20 274 11 gusting 18 13.3
2015-Jan-30 12:15 266 13 gusting 20 13.3
2015-Jan-30 12:10 271 8 gusting 19 13.3
2015-Jan-30 12:05 273 11 gusting 19 13.3
2015-Jan-30 12:00 271 8 gusting 20 13.9
2015-Jan-30 11:55 277 9 gusting 20 13.3
2015-Jan-30 11:50 302 13 gusting 20 13.3
2015-Jan-30 11:45 281 13 gusting 21 13.9
2015-Jan-30 11:40 267 10 gusting 25 13.9
2015-Jan-30 11:35 036 12 gusting 20 13.9
2015-Jan-30 11:30 279 10 gusting 20 13.9
2015-Jan-30 11:25 313 11 gusting 18 13.3
2015-Jan-30 11:20 281 10 gusting 19 13.3
2015-Jan-30 11:15 294 13 gusting 21 13.3
2015-Jan-30 11:10 294 12 gusting 19 13.3
2015-Jan-30 11:05 286 8 gusting 18 13.3
2015-Jan-30 11:00 263 11 gusting 17 13.3
2015-Jan-30 10:55 344 11 gusting 21 13.3
2015-Jan-30 10:50 285 10 gusting 21 13.3
2015-Jan-30 10:45 306 10 gusting 19 13.3
2015-Jan-30 10:40 290 8 gusting 19 13.3
2015-Jan-30 10:35 294 12 gusting 18 13.3
2015-Jan-30 10:30 289 9 gusting 24 13.3
2015-Jan-30 10:25 294 14 gusting 24 13.3
2015-Jan-30 10:20 268 10 gusting 19 13.3
2015-Jan-30 10:15 281 10 gusting 19 13.3
2015-Jan-30 10:10 270 9 gusting 18 13.3
2015-Jan-30 10:05 275 12 gusting 19 13.3
2015-Jan-30 10:00 265 9 gusting 23 13.3
2015-Jan-30 09:55 286 12 gusting 19 13.3
2015-Jan-30 09:50 339 10 gusting 18 13.3
2015-Jan-30 09:45 277 6 gusting 19 13.3
2015-Jan-30 09:40 290 10 gusting 19 13.3
2015-Jan-30 09:35 278 13 gusting 20 13.3
2015-Jan-30 09:30 278 11 gusting 19 13.3
2015-Jan-30 09:25 292 12 gusting 19 13.3
2015-Jan-30 09:20 283 9 gusting 19 13.3
2015-Jan-30 09:15 279 13 gusting 19 13.3
2015-Jan-30 09:10 280 11 gusting 19 13.3
2015-Jan-30 09:05 257 11 gusting 19 13.3
2015-Jan-30 09:00 286 9 gusting 18 13.3
2015-Jan-30 08:55 285 7 gusting 17 13.3
2015-Jan-30 08:50 255 11 gusting 17 13.3
2015-Jan-30 08:45 282 12 gusting 17 13.3
2015-Jan-30 08:40 278 11 gusting 17 13.3
2015-Jan-30 08:35 274 10 gusting 18 13.3
2015-Jan-30 08:30 300 11 gusting 23 13.3
2015-Jan-30 08:25 265 9 gusting 23 13.3
2015-Jan-30 08:20 279 12 gusting 19 13.3
2015-Jan-30 08:15 280 8 gusting 18 13.3
2015-Jan-30 08:10 302 9 gusting 17 13.3
2015-Jan-30 08:05 264 10 gusting 17 13.3
2015-Jan-30 08:00 295 10 gusting 17 13.3
2015-Jan-30 07:55 304 10 gusting 20 13.3
2015-Jan-30 07:50 285 12 gusting 21 13.3
2015-Jan-30 07:45 264 13 gusting 21 13.3
2015-Jan-30 07:40 277 13 gusting 19 13.3
2015-Jan-30 07:35 269 11 gusting 18 13.3
2015-Jan-30 07:30 288 9 gusting 18 13.3
2015-Jan-30 07:25 278 8 gusting 15 13.3
2015-Jan-30 07:20 319 10 gusting 19 13.3
2015-Jan-30 07:15 309 12 gusting 19 13.3
2015-Jan-30 07:10 299 12 gusting 18 13.3
2015-Jan-30 07:05 309 11 gusting 19 13.3
2015-Jan-30 07:00 318 12 gusting 19 13.3
2015-Jan-30 06:55 300 9 gusting 18 13.3
2015-Jan-30 06:50 295 9 gusting 19 13.3
2015-Jan-30 06:45 252 10 gusting 19 13.3
2015-Jan-30 06:40 305 10 gusting 19 13.3
2015-Jan-30 06:35 299 9 gusting 20 13.3
2015-Jan-30 06:30 302 10 gusting 21 13.3
2015-Jan-30 06:25 321 12 gusting 21 13.3
2015-Jan-30 06:20 269 13 gusting 19 13.3
2015-Jan-30 06:15 273 9 gusting 15 13.3
2015-Jan-30 06:10 283 7 gusting 13 13.3
2015-Jan-30 06:05 282 7 gusting 14 13.3
2015-Jan-30 06:00 315 9 gusting 14 13.3
2015-Jan-30 05:55 292 6 gusting 13 13.3
2015-Jan-30 05:50 301 7 gusting 13 13.3
2015-Jan-30 05:45 293 7 gusting 13 13.3
2015-Jan-30 05:40 231 9 gusting 14 13.3
2015-Jan-30 05:35 306 8 gusting 16 13.3
2015-Jan-30 05:30 297 9 gusting 16 13.3
2015-Jan-30 05:25 298 10 gusting 18 12.8
2015-Jan-30 05:20 284 8 gusting 18 13.3
2015-Jan-30 05:15 285 9 gusting 16 13.3
2015-Jan-30 05:10 304 11 gusting 15 13.3
2015-Jan-30 05:05 284 10 gusting 15 12.8
2015-Jan-30 05:00 270 6 gusting 13 12.8
2015-Jan-30 04:55 292 8 gusting 13 13.3
2015-Jan-30 04:50 298 7 gusting 16 13.3
2015-Jan-30 04:45 292 9 gusting 16 13.3
2015-Jan-30 04:40 290 9 gusting 16 13.3
2015-Jan-30 04:35 290 8 gusting 19 13.3
2015-Jan-30 04:30 319 11 gusting 19 13.3
2015-Jan-30 04:25 295 8 gusting 14 13.3
2015-Jan-30 04:20 298 6 gusting 13 13.3
2015-Jan-30 04:15 315 8 gusting 18 13.3
2015-Jan-30 04:10 284 11 gusting 19 13.3
2015-Jan-30 04:05 313 11 gusting 19 13.3
2015-Jan-30 04:00 313 8 gusting 14 12.8
2015-Jan-30 03:55 283 8 gusting 15 12.8
2015-Jan-30 03:50 301 11 gusting 18 12.8
2015-Jan-30 03:45 307 11 gusting 18 12.8
2015-Jan-30 03:40 350 11 gusting 19 13.3
2015-Jan-30 03:35 290 10 gusting 19 13.3
2015-Jan-30 03:30 284 11 gusting 18 13.3
2015-Jan-30 03:25 328 10 gusting 17 13.3
2015-Jan-30 03:20 311 11 gusting 16 12.8
2015-Jan-30 03:15 311 11 gusting 18 12.8
2015-Jan-30 03:10 288 10 gusting 15 12.8
2015-Jan-30 03:05 306 8 gusting 21 12.8
2015-Jan-30 03:00 315 13 gusting 21 12.8
2015-Jan-30 02:55 291 9 gusting 17 12.8
2015-Jan-30 02:50 311 11 gusting 20 12.8
2015-Jan-30 02:45 299 11 gusting 20 12.8
2015-Jan-30 02:40 315 10 gusting 18 12.8
2015-Jan-30 02:35 345 11 gusting 18 12.8
2015-Jan-30 02:30 309 12 gusting 18 12.8
2015-Jan-30 02:25 306 10 gusting 19 12.8
2015-Jan-30 02:20 319 13 gusting 19 13.3
2015-Jan-30 02:15 315 13 gusting 19 13.3
2015-Jan-30 02:10 302 12 gusting 20 13.3
2015-Jan-30 02:05 311 13 gusting 20 13.3
2015-Jan-30 02:00 324 13 gusting 19 13.3
2015-Jan-30 01:55 304 12 gusting 18 13.3
2015-Jan-30 01:50 277 12 gusting 18 13.3
2015-Jan-30 01:45 288 9 gusting 17 13.3
2015-Jan-30 01:40 307 9 gusting 19 13.3
2015-Jan-30 01:35 289 13 gusting 19 13.3
2015-Jan-30 01:30 259 12 gusting 18 13.3
2015-Jan-30 01:25 300 8 gusting 16 13.3
2015-Jan-30 01:20 264 8 gusting 17 13.3
2015-Jan-30 01:15 290 8 gusting 19 13.3
2015-Jan-30 01:10 287 12 gusting 19 13.3
2015-Jan-30 01:05 297 12 gusting 18 13.3
2015-Jan-30 01:00 300 9 gusting 17 13.3
2015-Jan-30 00:55 293 10 gusting 17 13.3
2015-Jan-30 00:50 302 10 gusting 16 13.3
2015-Jan-30 00:45 293 11 gusting 19 13.3
2015-Jan-30 00:40 304 12 gusting 16 13.3
2015-Jan-30 00:35 342 7 gusting 20 13.3
2015-Jan-30 00:30 299 12 gusting 20 13.3
2015-Jan-30 00:25 332 10 gusting 16 13.3
2015-Jan-30 00:20 291 8 gusting 16 13.3
2015-Jan-30 00:15 297 11 gusting 16 13.3
2015-Jan-30 00:10 324 9 gusting 20 13.3
2015-Jan-30 00:05 275 12 gusting 20 13.3
2015-Jan-30 00:00 294 12 gusting 18 13.3
2015-Jan-29 23:55 315 9 gusting 16 13.3
2015-Jan-29 23:50 302 10 gusting 17 13.3
2015-Jan-29 23:45 297 10 gusting 16 13.3
2015-Jan-29 23:40 290 10 gusting 16 13.3
2015-Jan-29 23:35 283 10 gusting 19 13.3
2015-Jan-29 23:30 311 8 gusting 19 13.3
2015-Jan-29 23:25 292 10 gusting 22 13.3
2015-Jan-29 23:20 277 12 gusting 22 13.3
2015-Jan-29 23:15 253 13 gusting 21 13.3
2015-Jan-29 23:10 286 11 gusting 19 13.3
2015-Jan-29 23:05 263 10 gusting 19 13.3
2015-Jan-29 23:00 272 11 gusting 19 13.3
2015-Jan-29 22:55 275 12 gusting 19 13.3
2015-Jan-29 22:50 261 10 gusting 19 13.3
2015-Jan-29 22:45 276 13 gusting 19 13.3
2015-Jan-29 22:40 271 13 gusting 19 13.3
2015-Jan-29 22:35 250 10 gusting 18 13.3
2015-Jan-29 22:30 273 9 gusting 17 13.3
2015-Jan-29 22:25 279 11 gusting 19 13.3
2015-Jan-29 22:20 266 12 gusting 19 13.3
2015-Jan-29 22:15 275 12 gusting 18 13.3
2015-Jan-29 22:10 261 6 gusting 16 13.3
2015-Jan-29 22:05 259 11 gusting 16 13.3
2015-Jan-29 22:00 261 10 gusting 15 13.3
2015-Jan-29 21:55 275 7 gusting 13 13.3
2015-Jan-29 21:50 276 8 gusting 18 13.3
2015-Jan-29 21:45 304 11 gusting 18 13.3
2015-Jan-29 21:40 282 8 gusting 15 13.3
2015-Jan-29 21:35 283 8 gusting 16 13.3
2015-Jan-29 21:30 283 9 gusting 18 13.3
2015-Jan-29 21:25 271 8 gusting 17 13.3
2015-Jan-29 21:20 209 9 gusting 15 13.3
2015-Jan-29 21:15 285 9 gusting 15 13.3
2015-Jan-29 21:10 279 9 gusting 15 13.3
2015-Jan-29 21:05 274 7 gusting 18 12.8
2015-Jan-29 21:00 266 11 gusting 14 12.8
2015-Jan-29 20:55 254 8 gusting 16 12.8
2015-Jan-29 20:50 275 10 gusting 15 12.8
2015-Jan-29 20:45 269 6 gusting 18 12.8
2015-Jan-29 20:40 270 9 gusting 13 12.8
2015-Jan-29 20:35 272 9 gusting 13 12.8
2015-Jan-29 20:30 280 8 gusting 14 12.8
2015-Jan-29 20:25 283 8 gusting 14 12.8
2015-Jan-29 20:20 291 8 gusting 12 12.8
2015-Jan-29 20:15 269 8 gusting 12 12.8
2015-Jan-29 20:10 292 7 gusting 15 12.8
2015-Jan-29 20:05 315 9 gusting 15 12.8
2015-Jan-29 20:00 298 8 gusting 13 12.8
2015-Jan-29 19:55 292 9 gusting 13 12.8
2015-Jan-29 19:50 276 6 gusting 12 12.8
2015-Jan-29 19:45 271 8 gusting 13 12.8
2015-Jan-29 19:40 307 7 gusting 13 12.8
2015-Jan-29 19:35 279 6 gusting 11 12.8
2015-Jan-29 19:30 271 6 gusting 11 12.8
2015-Jan-29 19:25 277 6 gusting 10 12.8
2015-Jan-29 19:20 257 6 gusting 10 12.8
2015-Jan-29 19:15 270 6 gusting 10 12.8
2015-Jan-29 19:10 245 7 gusting 10 12.8
2015-Jan-29 19:05 271 5 gusting 11 12.8
2015-Jan-29 19:00 277 6 gusting 11 12.8
2015-Jan-29 18:55 273 6 gusting 12 12.8
2015-Jan-29 18:50 269 6 gusting 12 12.8
2015-Jan-29 18:45 300 6 gusting 13 12.8
2015-Jan-29 18:40 317 6 gusting 15 12.8
2015-Jan-29 18:35 290 8 gusting 15 12.8
2015-Jan-29 18:30 289 9 gusting 15 12.8
2015-Jan-29 18:25 282 8 gusting 17 12.8
2015-Jan-29 18:20 267 11 gusting 17 12.8
2015-Jan-29 18:15 261 6 gusting 13 12.8
2015-Jan-29 18:10 264 6 gusting 13 12.8
2015-Jan-29 18:05 273 6 gusting 13 12.8
2015-Jan-29 18:00 286 7 gusting 16 12.8
2015-Jan-29 17:55 275 8 gusting 16 12.8
2015-Jan-29 17:50 304 8 gusting 17 12.8
2015-Jan-29 17:45 275 10 gusting 17 12.8
2015-Jan-29 17:40 271 10 gusting 14 12.8
2015-Jan-29 17:35 255 9 gusting 14 12.8
2015-Jan-29 17:30 264 10 gusting 14 12.8
2015-Jan-29 17:25 264 8 gusting 14 12.8
2015-Jan-29 17:20 258 8 gusting 13 12.8
2015-Jan-29 17:15 269 7 gusting 13 12.8
2015-Jan-29 17:10 281 9 gusting 14 12.8
2015-Jan-29 17:05 281 9 gusting 14 12.8
2015-Jan-29 17:00 256 7 gusting 13 12.8
2015-Jan-29 16:55 276 6 gusting 13 12.8
2015-Jan-29 16:50 296 10 gusting 15 12.8
2015-Jan-29 16:45 301 10 gusting 16 12.8
2015-Jan-29 16:40 281 11 gusting 16 12.8
2015-Jan-29 16:35 282 9 gusting 13 12.8
2015-Jan-29 16:30 261 6 gusting 15 13.3
2015-Jan-29 16:25 198 7 gusting 15 12.8
2015-Jan-29 16:20 274 6 gusting 13 12.8
2015-Jan-29 16:15 254 8 gusting 14 12.8
2015-Jan-29 16:10 307 8 gusting 17 12.8
2015-Jan-29 16:05 275 9 gusting 17 12.8
2015-Jan-29 16:00 281 9 gusting 16 12.8
2015-Jan-29 15:55 276 12 gusting 16 12.8
2015-Jan-29 15:50 273 7 gusting 14 12.8
2015-Jan-29 15:45 294 9 gusting 14 12.8
2015-Jan-29 15:40 267 8 gusting 14 12.8
2015-Jan-29 15:35 263 9 gusting 15 12.8
2015-Jan-29 15:30 257 9 gusting 14 12.8
2015-Jan-29 15:25 265 8 gusting 18 13.3
2015-Jan-29 15:20 256 12 gusting 18 12.8
2015-Jan-29 15:15 255 8 gusting 14 12.8
2015-Jan-29 15:10 267 9 gusting 15 12.8
2015-Jan-29 15:05 250 11 gusting 18 12.8
2015-Jan-29 15:00 255 9 gusting 14 13.3
2015-Jan-29 14:55 254 9 gusting 14 12.8
2015-Jan-29 14:50 263 11 gusting 18 12.8
2015-Jan-29 14:45 266 12 gusting 18 12.8
2015-Jan-29 14:40 263 8 gusting 15 13.3
2015-Jan-29 14:35 266 9 gusting 14 13.3
2015-Jan-29 14:30 265 8 gusting 14 12.8
2015-Jan-29 14:25 268 8 gusting 13 12.8
2015-Jan-29 14:20 265 9 gusting 13 12.8
2015-Jan-29 14:15 260 6 gusting 14 12.8
2015-Jan-29 14:10 254 6 gusting 14 13.3
2015-Jan-29 14:05 259 8 gusting 16 13.3
2015-Jan-29 14:00 266 8 gusting 19 12.8
2015-Jan-29 13:55 265 10 gusting 16 12.8
2015-Jan-29 13:50 266 10 gusting 16 13.3
2015-Jan-29 13:45 284 8 gusting 16 13.3
2015-Jan-29 13:40 255 9 gusting 16 12.8
2015-Jan-29 13:35 263 8 gusting 13 12.8
2015-Jan-29 13:30 248 9 gusting 14 12.8
2015-Jan-29 13:25 255 9 gusting 14 13.3
2015-Jan-29 13:20 258 8 gusting 13 12.8
2015-Jan-29 13:15 279 8 gusting 13 12.8
2015-Jan-29 13:10 261 8 gusting 13 12.8
2015-Jan-29 13:05 262 8 gusting 13 12.8
2015-Jan-29 13:00 259 9 gusting 12 13.3
2015-Jan-29 12:55 295 7 gusting 13 13.3
2015-Jan-29 12:50 256 9 gusting 13 13.3
2015-Jan-29 12:45 258 6 gusting 14 13.3
2015-Jan-29 12:40 263 6 gusting 14 13.3
2015-Jan-29 12:35 267 7 gusting 12 13.3
2015-Jan-29 12:30 275 6 gusting 12 13.3
2015-Jan-29 12:25 284 5 gusting 12 13.3
2015-Jan-29 12:20 250 6 gusting 13 13.3
2015-Jan-29 12:15 250 6 gusting 13 13.3
2015-Jan-29 12:10 266 6 gusting 12 13.3
2015-Jan-29 12:05 263 9 gusting 12 13.3
2015-Jan-29 12:00 278 7 gusting 12 13.3
2015-Jan-29 11:55 283 8 gusting 12 13.3
2015-Jan-29 11:50 307 6 gusting 13 13.3
2015-Jan-29 11:45 269 7 gusting 13 13.3
2015-Jan-29 11:40 278 9 gusting 13 13.3
2015-Jan-29 11:35 267 9 gusting 13 13.3
2015-Jan-29 11:30 272 6 gusting 11 13.3
2015-Jan-29 11:25 280 5 gusting 12 13.3
2015-Jan-29 11:20 299 5 gusting 14 13.3
2015-Jan-29 11:15 262 9 gusting 14 13.3
2015-Jan-29 11:10 281 7 gusting 10 13.3
2015-Jan-29 11:05 278 5 gusting 10 13.3
2015-Jan-29 11:00 300 6 gusting 11 13.3
2015-Jan-29 10:55 295 4 gusting 11 13.3
2015-Jan-29 10:50 333 6 gusting 12 13.3
2015-Jan-29 10:45 289 6 gusting 12 13.3
2015-Jan-29 10:40 299 7 gusting 11 13.3
2015-Jan-29 10:35 331 7 gusting 11 13.3
2015-Jan-29 10:30 323 5 gusting 11 13.3
2015-Jan-29 10:25 278 4 gusting 8 13.3
2015-Jan-29 10:20 297 6 gusting 11 12.8
2015-Jan-29 10:15 313 6 gusting 13 12.8
2015-Jan-29 10:10 293 6 gusting 13 12.8
2015-Jan-29 10:05 306 7 gusting 11 12.8
2015-Jan-29 10:00 273 5 gusting 11 12.8
2015-Jan-29 09:55 292 4 gusting 9 12.8
2015-Jan-29 09:50 303 6 gusting 10 12.8
2015-Jan-29 09:45 311 6 gusting 12 12.8
2015-Jan-29 09:40 324 6 gusting 12 12.8
2015-Jan-29 09:35 312 6 gusting 10 12.8
2015-Jan-29 09:30 278 6 gusting 11 12.8
2015-Jan-29 09:25 317 6 gusting 9 12.8
2015-Jan-29 09:20 322 6 gusting 9 12.8
2015-Jan-29 09:15 302 6 gusting 10 12.8
2015-Jan-29 09:10 276 6 gusting 10 12.8
2015-Jan-29 09:05 309 5 gusting 8 12.8
2015-Jan-29 09:00 315 5 gusting 9 12.8
2015-Jan-29 08:55 325 6 gusting 13 12.8
2015-Jan-29 08:50 306 8 gusting 13 12.8
2015-Jan-29 08:45 309 6 gusting 13 12.2
2015-Jan-29 08:40 297 6 gusting 11 12.2
2015-Jan-29 08:35 319 6 gusting 10 12.2
2015-Jan-29 08:30 323 6 gusting 10 12.2
2015-Jan-29 08:25 297 5 gusting 9 12.2
2015-Jan-29 08:20 300 6 gusting 8 12.8
2015-Jan-29 08:15 329 5 gusting 8 12.8
2015-Jan-29 08:10 298 6 gusting 9 12.8
2015-Jan-29 08:05 301 6 gusting 9 12.2
2015-Jan-29 08:00 325 6 gusting 10 12.2
2015-Jan-29 07:55 327 6 gusting 10 12.2
2015-Jan-29 07:50 316 6 gusting 8 12.2
2015-Jan-29 07:45 330 5 gusting 8 12.2
2015-Jan-29 07:40 325 5 gusting 8 12.2
2015-Jan-29 07:35 334 3 gusting 10 12.2
2015-Jan-29 07:30 336 7 gusting 12 12.2
2015-Jan-29 07:25 318 6 gusting 12 12.2
2015-Jan-29 07:20 336 4 gusting 10 12.2
2015-Jan-29 07:15 331 6 gusting 9 12.8
2015-Jan-29 07:10 308 5 gusting 9 12.8
2015-Jan-29 07:05 329 6 gusting 9 12.8
2015-Jan-29 07:00 326 6 gusting 11 12.8
2015-Jan-29 06:55 291 6 gusting 11 12.8
2015-Jan-29 06:50 005 4 gusting 7 12.8
2015-Jan-29 06:45 306 4 gusting 8 12.8
2015-Jan-29 05:50 323 6 gusting 10 12.2
2015-Jan-29 05:45 355 6 gusting 10 12.2
2015-Jan-29 05:40 318 6 gusting 10 12.2
2015-Jan-29 05:35 302 6 gusting 12 12.2
2015-Jan-29 05:30 324 8 gusting 12 12.2
2015-Jan-29 05:25 336 6 gusting 10 12.8
2015-Jan-29 05:20 337 6 gusting 10 12.8
2015-Jan-29 05:15 307 6 gusting 8 12.8
2015-Jan-29 05:10 314 5 gusting 8 12.8
2015-Jan-29 05:05 317 5 gusting 7 12.2
2015-Jan-29 05:00 312 5 gusting 9 12.2
2015-Jan-29 04:55 331 6 gusting 9 12.2
2015-Jan-29 04:50 308 3 gusting 8 12.2
2015-Jan-29 04:45 318 5 gusting 8 12.2
2015-Jan-29 04:40 306 6 gusting 8 12.2
2015-Jan-29 04:35 321 5 gusting 8 12.2
2015-Jan-29 04:30 325 4 gusting 7 12.2
2015-Jan-29 04:25 323 5 gusting 7 12.2
2015-Jan-29 04:20 312 5 gusting 8 12.2
2015-Jan-29 04:15 355 6 gusting 9 12.2
2015-Jan-29 04:10 323 6 gusting 9 12.2
2015-Jan-29 04:05 335 5 gusting 9 12.2
2015-Jan-29 04:00 330 5 gusting 9 12.2
2015-Jan-29 03:55 313 5 gusting 8 12.2
2015-Jan-29 03:50 336 4 gusting 7 12.2
2015-Jan-29 03:45 321 5 gusting 8 12.2
2015-Jan-29 03:40 312 5 gusting 8 12.2
2015-Jan-29 03:35 331 3 gusting 7 12.2
2015-Jan-29 03:30 310 4 gusting 8 12.2
2015-Jan-29 03:25 315 4 gusting 8 12.2
2015-Jan-29 03:20 307 5 gusting 8 12.2
2015-Jan-29 03:15 315 5 gusting 6 12.2
2015-Jan-29 03:10 325 4 gusting 6 12.2
2015-Jan-29 03:05 318 3 gusting 6 12.2
2015-Jan-29 03:00 315 5 gusting 7 12.2
2015-Jan-29 02:55 327 5 gusting 7 12.2
2015-Jan-29 02:50 329 5 gusting 8 12.2
2015-Jan-29 02:45 308 5 gusting 8 12.2
2015-Jan-29 02:40 311 5 gusting 10 12.2
2015-Jan-29 02:35 290 6 gusting 10 12.2
2015-Jan-29 02:30 292 2 gusting 6 12.2
2015-Jan-29 02:25 289 4 gusting 6 12.2
2015-Jan-29 02:20 278 3 gusting 6 12.2
2015-Jan-29 02:15 301 2 gusting 4 12.2
2015-Jan-29 02:10 290 12.2
2015-Jan-29 02:05 293 12.2
2015-Jan-29 02:00 294 12.2
2015-Jan-29 01:55 270 0 gusting 5 12.2
2015-Jan-29 01:50 298 12.2
2015-Jan-29 01:45 316 0 gusting 2 12.2
2015-Jan-29 01:40 317 12.2
2015-Jan-29 01:35 318 0 gusting 2 12.2
2015-Jan-29 01:30 332 12.2
2015-Jan-29 01:25 334 12.2
2015-Jan-29 01:20 005 11.7
2015-Jan-29 01:15 015 11.7
2015-Jan-29 01:10 015 12.2
2015-Jan-29 01:05 015 12.2
2015-Jan-29 01:00 015 12.2
2015-Jan-29 00:55 015 12.2
2015-Jan-29 00:50 015 0 gusting 3 12.2
2015-Jan-29 00:45 019 12.2
2015-Jan-29 00:40 019 2 gusting 5 12.2
2015-Jan-29 00:35 360 12.2
2015-Jan-29 00:30 360 12.2
2015-Jan-29 00:25 360 12.2
2015-Jan-29 00:20 360 12.2
2015-Jan-29 00:15 360 12.2
2015-Jan-29 00:10 360 12.2
2015-Jan-29 00:05 360 12.2
2015-Jan-29 00:00 360 12.2
2015-Jan-28 23:55 360 0 gusting 4 12.2
2015-Jan-28 23:50 360 0 gusting 5 12.2
2015-Jan-28 23:45 360 12.2
2015-Jan-28 23:40 350 3 gusting 6 12.2
2015-Jan-28 23:35 015 1 gusting 8 12.2
2015-Jan-28 23:30 009 5 gusting 8 12.2
2015-Jan-28 23:25 019 5 gusting 7 12.2
2015-Jan-28 23:20 019 3 gusting 6 12.2
2015-Jan-28 23:15 360 3 gusting 8 12.2
2015-Jan-28 23:10 017 4 gusting 9 12.2
2015-Jan-28 23:05 009 6 gusting 10 12.2
2015-Jan-28 23:00 021 6 gusting 10 12.2
2015-Jan-28 22:55 022 6 gusting 10 12.2
2015-Jan-28 22:50 018 5 gusting 8 12.2
2015-Jan-28 22:45 005 4 gusting 6 12.2
2015-Jan-28 22:40 360 4 gusting 8 12.2
2015-Jan-28 22:35 013 4 gusting 8 12.2
2015-Jan-28 22:30 340 4 gusting 8 12.2
2015-Jan-28 22:25 355 4 gusting 9 12.2
2015-Jan-28 22:20 005 5 gusting 9 12.2
2015-Jan-28 22:15 360 4 gusting 7 12.2
2015-Jan-28 22:10 009 4 gusting 7 12.2
2015-Jan-28 22:05 018 4 gusting 7 12.2
2015-Jan-28 22:00 020 3 gusting 6 12.2
2015-Jan-28 21:55 016 2 gusting 6 12.2
2015-Jan-28 21:50 011 5 gusting 6 12.2
2015-Jan-28 21:45 011 4 gusting 6 12.2
2015-Jan-28 21:40 019 3 gusting 7 12.2
2015-Jan-28 21:35 341 4 gusting 6 12.2
2015-Jan-28 21:30 010 5 gusting 7 12.2
2015-Jan-28 21:25 019 5 gusting 8 12.2
2015-Jan-28 21:20 005 4 gusting 8 12.2
2015-Jan-28 21:15 005 5 gusting 12 12.2
2015-Jan-28 21:10 028 7 gusting 12 12.2
2015-Jan-28 21:05 019 6 gusting 11 12.2
2015-Jan-28 21:00 021 7 gusting 11 12.2